{"data":{"norad_id":55295,"intl_designator":"2023-010AC","name":"STARLINK-5293","alt_names":[],"object_type":"PAYLOAD","status":"ACTIVE","operator":null,"country":"US","launch_date":"2023-01-19","launch_site_code":"AFWTR","launch_vehicle":null,"mission":null,"orbit_class":"UNKNOWN","rcs_meters":null,"size_class":null,"mass_kg":null,"dimensions":null,"purposes":["comms"],"wikipedia_slug":null,"has_3d_model":false,"image_url":null,"decayed_at":null,"tle_current":{"epoch":"2026-05-25T04:52:52.864896Z","epoch_age_seconds":54567,"freshness":"FRESH","line1":"1 55295U 23010AC  26145.20338964  .00000200  00000+0  24542-4 0  9997","line2":"2 55295  69.9990 211.6667 0003899 268.9895  91.0817 14.98331512184247","mean_motion":14.98331512,"eccentricity":0.0003899,"inclination_deg":69.999,"raan_deg":211.6667,"arg_perigee_deg":268.9895,"mean_anomaly_deg":91.0817,"bstar":2.4542e-5,"rev_number":18424,"period_min":96.106902141961,"perigee_km":569.34133682796,"apogee_km":574.76109359819,"semimajor_km":6950.1882152131,"source":"CELESTRAK","updated_at":"2026-05-25T13:38:17.736077Z"}}}